Hourly Weather Padang

Today, 30 September, Wednesday

Time Temperature Precipitation Wind Pressure Humidity
00:00 +26°C° 0 mm 2 mps 756 mmHg 87%
01:00 +26°C° 0 mm 2 mps 756 mmHg 89%
02:00 +26°C° 0 mm 2 mps 756 mmHg 89%
03:00 +26°C° 0 mm 2 mps 755 mmHg 89%
04:00 +26°C° 0 mm 1 mps 755 mmHg 89%
05:00 +26°C° 0 mm 1 mps 755 mmHg 88%
06:00 +26°C° 0 mm 1 mps 756 mmHg 87%
07:00 +27°C° 0 mm 1 mps 756 mmHg 86%
08:00 +29°C° 0 mm 1 mps 756 mmHg 78%
09:00 +31°C° 0 mm 1 mps 757 mmHg 70%
10:00 +34°C° 0 mm 1 mps 757 mmHg 62%
11:00 +34°C° 0.3 mm 1 mps 756 mmHg 64%
12:00 +34°C° 0.3 mm 1 mps 756 mmHg 67%
13:00 +35°C° 0.3 mm 2 mps 755 mmHg 69%
14:00 +33°C° 0.7 mm 1 mps 754 mmHg 74%
15:00 +32°C° 0.7 mm 1 mps 754 mmHg 78%
16:00 +29°C° 0.7 mm 0 mps 753 mmHg 83%
17:00 +28°C° 1 mm 0 mps 754 mmHg 87%
18:00 +27°C° 1 mm 0 mps 754 mmHg 90%
19:00 +26°C° 1 mm 0 mps 755 mmHg 94%
20:00 +26°C° 1.1 mm 0 mps 755 mmHg 94%
21:00 +27°C° 1.1 mm 1 mps 756 mmHg 93%
22:00 +27°C° 1.1 mm 1 mps 757 mmHg 92%
23:00 +27°C° 0.9 mm 1 mps 757 mmHg 92%

Tomorrow, 1 October, Thursday

Time Temperature Precipitation Wind Pressure Humidity
00:00 +27°C° 0.9 mm 1 mps 756 mmHg 92%
01:00 +26°C° 0.9 mm 1 mps 756 mmHg 92%
02:00 +26°C° 0.5 mm 1 mps 756 mmHg 92%
03:00 +26°C° 0.5 mm 2 mps 755 mmHg 93%
04:00 +26°C° 0.5 mm 2 mps 755 mmHg 93%
05:00 +26°C° 0.1 mm 2 mps 756 mmHg 92%
06:00 +26°C° 0.1 mm 2 mps 756 mmHg 92%
07:00 +27°C° 0.1 mm 2 mps 757 mmHg 92%
08:00 +29°C° 0 mm 2 mps 757 mmHg 83%
09:00 +31°C° 0 mm 2 mps 757 mmHg 75%
10:00 +34°C° 0 mm 2 mps 757 mmHg 67%
11:00 +34°C° 1.3 mm 2 mps 756 mmHg 73%
12:00 +32°C° 1.3 mm 2 mps 756 mmHg 80%
13:00 +31°C° 1.3 mm 3 mps 755 mmHg 86%
14:00 +30°C° 2.7 mm 3 mps 755 mmHg 90%
15:00 +29°C° 2.7 mm 2 mps 754 mmHg 93%
16:00 +28°C° 2.7 mm 2 mps 754 mmHg 96%
17:00 +28°C° 2.5 mm 2 mps 755 mmHg 97%
18:00 +28°C° 2.5 mm 1 mps 755 mmHg 97%
19:00 +27°C° 2.5 mm 1 mps 756 mmHg 98%
20:00 +27°C° 1.7 mm 1 mps 757 mmHg 98%
21:00 +27°C° 1.7 mm 1 mps 757 mmHg 98%
22:00 +27°C° 1.7 mm 1 mps 758 mmHg 98%
23:00 +27°C° 1.5 mm 1 mps 758 mmHg 98%

Day after tomorrow, 2 October, Friday

Time Temperature Precipitation Wind Pressure Humidity
00:00 +25°C° 1.5 mm 0 mps 757 mmHg 98%
01:00 +25°C° 1.5 mm 0 mps 757 mmHg 98%
02:00 +24°C° 1.6 mm 0 mps 756 mmHg 98%
03:00 +24°C° 1.6 mm 0 mps 756 mmHg 98%
04:00 +24°C° 1.6 mm 0 mps 756 mmHg 97%
05:00 +24°C° 1.1 mm 0 mps 756 mmHg 97%
06:00 +25°C° 1.1 mm 0 mps 757 mmHg 96%
07:00 +25°C° 1.1 mm 0 mps 757 mmHg 96%
08:00 +28°C° 1.5 mm 1 mps 758 mmHg 94%
09:00 +29°C° 1.5 mm 1 mps 758 mmHg 92%
10:00 +30°C° 1.5 mm 2 mps 758 mmHg 89%
11:00 +30°C° 2.1 mm 2 mps 758 mmHg 91%
12:00 +29°C° 2.1 mm 2 mps 757 mmHg 93%
13:00 +29°C° 2.1 mm 2 mps 756 mmHg 94%
14:00 +29°C° 1.6 mm 2 mps 756 mmHg 95%
15:00 +28°C° 1.6 mm 1 mps 756 mmHg 96%
16:00 +28°C° 1.6 mm 1 mps 755 mmHg 96%
17:00 +27°C° 2.8 mm 1 mps 756 mmHg 97%
18:00 +27°C° 2.8 mm 1 mps 757 mmHg 97%
19:00 +27°C° 2.8 mm 1 mps 757 mmHg 97%
20:00 +27°C° 3.9 mm 1 mps 758 mmHg 98%
21:00 +27°C° 3.9 mm 1 mps 759 mmHg 99%
22:00 +27°C° 3.9 mm 1 mps 759 mmHg 99%
23:00 +27°C° 7 mm 1 mps 759 mmHg 99%

3 October, Saturday

Time Temperature Precipitation Wind Pressure Humidity
00:00 +26°C° 7 mm 2 mps 758 mmHg 99%
01:00 +26°C° 7 mm 2 mps 758 mmHg 99%
02:00 +26°C° 4.3 mm 2 mps 758 mmHg 99%
03:00 +26°C° 4.3 mm 1 mps 757 mmHg 98%
04:00 +26°C° 4.3 mm 1 mps 757 mmHg 98%
05:00 +26°C° 1.8 mm 1 mps 758 mmHg 98%
06:00 +26°C° 1.8 mm 1 mps 758 mmHg 97%
07:00 +26°C° 1.8 mm 1 mps 758 mmHg 97%
08:00 +26°C° 0.7 mm 1 mps 759 mmHg 96%
09:00 +26°C° 0.7 mm 1 mps 759 mmHg 96%
10:00 +26°C° 0.7 mm 1 mps 759 mmHg 96%
11:00 +27°C° 0.1 mm 1 mps 759 mmHg 93%
12:00 +28°C° 0.1 mm 1 mps 758 mmHg 90%
13:00 +29°C° 0.1 mm 1 mps 757 mmHg 88%
14:00 +29°C° 0.4 mm 1 mps 757 mmHg 88%
15:00 +29°C° 0.4 mm 2 mps 756 mmHg 88%
16:00 +29°C° 0.4 mm 2 mps 756 mmHg 89%
17:00 +28°C° 0 mm 2 mps 757 mmHg 90%
18:00 +27°C° 0 mm 2 mps 757 mmHg 91%
19:00 +27°C° 0 mm 2 mps 758 mmHg 92%
20:00 +27°C° 0 mm 2 mps 758 mmHg 90%
21:00 +27°C° 0 mm 2 mps 758 mmHg 88%
22:00 +27°C° 0 mm 2 mps 759 mmHg 85%
23:00 +27°C° 0 mm 2 mps 758 mmHg 84%

4 October, Sunday

Time Temperature Precipitation Wind Pressure Humidity
00:00 +27°C° 0 mm 1 mps 758 mmHg 82%
01:00 +27°C° 0 mm 1 mps 758 mmHg 81%
02:00 +27°C° 0 mm 1 mps 757 mmHg 81%
03:00 +27°C° 0 mm 1 mps 757 mmHg 81%
04:00 +26°C° 0 mm 1 mps 757 mmHg 80%
05:00 +27°C° 0 mm 1 mps 757 mmHg 80%
06:00 +27°C° 0 mm 1 mps 758 mmHg 79%
07:00 +27°C° 0 mm 1 mps 758 mmHg 78%
08:00 +29°C° 0 mm 1 mps 759 mmHg 71%
09:00 +31°C° 0 mm 1 mps 759 mmHg 64%
10:00 +33°C° 0 mm 1 mps 759 mmHg 57%
11:00 +33°C° 0.3 mm 1 mps 758 mmHg 61%
12:00 +33°C° 0.3 mm 1 mps 757 mmHg 64%
13:00 +34°C° 0.3 mm 2 mps 756 mmHg 67%
14:00 +32°C° 0.3 mm 2 mps 756 mmHg 73%
15:00 +31°C° 0.3 mm 1 mps 756 mmHg 79%
16:00 +30°C° 0.3 mm 1 mps 755 mmHg 85%
17:00 +29°C° 0.1 mm 1 mps 756 mmHg 87%
18:00 +28°C° 0.1 mm 1 mps 757 mmHg 89%
19:00 +28°C° 0.1 mm 1 mps 757 mmHg 91%
20:00 +27°C° 0 mm 1 mps 757 mmHg 91%
21:00 +27°C° 0 mm 1 mps 758 mmHg 90%
22:00 +27°C° 0 mm 1 mps 758 mmHg 89%
23:00 +27°C° 0 mm 1 mps 758 mmHg 88%

5 October, Monday

Time Temperature Precipitation Wind Pressure Humidity
00:00 +27°C° 0 mm 1 mps 758 mmHg 87%
01:00 +26°C° 0 mm 1 mps 758 mmHg 86%
02:00 +26°C° 0 mm 1 mps 757 mmHg 85%
03:00 +26°C° 0 mm 1 mps 757 mmHg 84%
04:00 +26°C° 0 mm 1 mps 757 mmHg 83%
05:00 +27°C° 0 mm 1 mps 757 mmHg 83%
06:00 +27°C° 0 mm 1 mps 757 mmHg 82%
07:00 +27°C° 0 mm 1 mps 758 mmHg 82%
08:00 +29°C° 0 mm 1 mps 758 mmHg 75%
09:00 +31°C° 0 mm 1 mps 758 mmHg 67%
10:00 +33°C° 0 mm 1 mps 758 mmHg 60%
11:00 +33°C° 0 mm 1 mps 758 mmHg 60%
12:00 +35°C° 0 mm 2 mps 757 mmHg 60%
13:00 +35°C° 0 mm 2 mps 756 mmHg 59%
14:00 +34°C° 0 mm 2 mps 756 mmHg 63%
15:00 +32°C° 0 mm 2 mps 755 mmHg 67%
16:00 +31°C° 0 mm 2 mps 755 mmHg 71%
17:00 +30°C° 0.1 mm 1 mps 756 mmHg 78%
18:00 +29°C° 0.1 mm 1 mps 756 mmHg 84%
19:00 +27°C° 0.1 mm 1 mps 757 mmHg 90%
20:00 +27°C° 0.1 mm 1 mps 757 mmHg 88%
21:00 +27°C° 0.1 mm 1 mps 758 mmHg 86%
22:00 +27°C° 0.1 mm 1 mps 759 mmHg 85%
23:00 +27°C° 0.3 mm 1 mps 758 mmHg 84%
Show more